EW4238 Weather Reports


Display with metric or nautical units.
time (UTC)temp
F
wind
direction
speed
MPH
gust
MPH
rain 1hr
in
rain 24hr
in
rain mn
in
humidity
%
barometer
mb
20260504130105 44 315 6.0 10.0 0.00 0.00 0.00 67 1012.7
20260504081537 47 33 2.0 9.0 0.00 0.00 0.00 57 1012.3
20260504044557 54 101 3.0 10.0 0.00 0.00 0.00 37 1006.7
20260504043100 57 328 3.0 10.0 0.00 0.00 0.00 38 1006.7
20260504041552 58 14 3.0 11.0 0.00 0.00 0.00 36 1006.2
20260504040120 58 23 3.0 14.0 0.00 0.00 0.00 36 1005.8
20260504034548 58 69 3.0 11.0 0.00 0.00 0.00 35 1005.6
20260504033048 59 48 2.0 8.0 0.00 0.00 0.00 35 1005.4
20260504031553 60 54 2.0 8.0 0.00 0.00 0.00 34 1005.1
20260504030043 61 95 2.0 9.0 0.00 0.00 0.00 34 1004.7
20260504024536 62 59 1.0 3.0 0.00 0.00 0.00 32 1004.5
20260504023037 65 68 1.0 4.0 0.00 0.00 0.00 28 1004.4
20260504021528 66 43 0.0 2.0 0.00 0.00 0.00 23 1004.4
20260504020026 67 358 1.0 4.0 0.00 0.00 0.00 22 1004.3
20260504014527 69 27 1.0 5.0 0.00 0.00 0.00 21 1004.5
20260504013020 71 23 1.0 6.0 0.00 0.00 0.00 20 1004.5
20260504011517 73 330 2.0 7.0 0.00 0.00 0.00 19 1004.5
20260504010016 74 351 2.0 9.0 0.00 0.00 0.00 19 1004.6
20260504004520 76 89 3.0 7.0 0.00 0.00 0.00 18 1004.7
20260504003011 76 353 4.0 10.0 0.00 0.00 0.00 18 1005.0
20260504001510 77 2 3.0 15.0 0.00 0.00 0.00 18 1005.1
20260504000008 78 27 4.0 12.0 0.00 0.00 0.00 17 1005.3
20260503234508 79 324 8.0 16.0 0.00 0.00 0.00 17 1005.3
20260503233014 79 356 7.0 14.0 0.00 0.00 0.00 17 1005.4
20260503231504 79 341 2.0 14.0 0.00 0.00 0.00 17 1005.6
20260503230004 79 352 7.0 17.0 0.00 0.00 0.00 16 1005.6
20260503224600 78 337 4.0 18.0 0.00 0.00 0.00 18 1005.8
20260503223102 76 310 11.0 22.0 0.00 0.00 0.00 17 1006.0
20260503221601 77 322 6.0 20.0 0.00 0.00 0.00 16 1006.2
20260503214555 76 322 7.0 21.0 0.00 0.00 0.00 17 1006.6
20260503213054 75 345 5.0 14.0 0.00 0.00 0.00 19 1006.7
20260503211552 75 311 2.0 22.0 0.00 0.00 0.00 17 1006.9
20260503204552 76 295 7.0 16.0 0.00 0.00 0.00 18 1007.7
20260503203056 75 346 6.0 15.0 0.00 0.00 0.00 17 1007.8
20260503201550 76 3 5.0 14.0 0.00 0.00 0.00 19 1007.9
20260503194552 76 315 7.0 17.0 0.00 0.00 0.00 18 1008.5
20260503193043 75 333 6.0 22.0 0.00 0.00 0.00 19 1008.6
20260503191538 77 349 4.0 15.0 0.00 0.00 0.00 20 1008.9
20260503184533 73 2 7.0 14.0 0.00 0.00 0.00 20 1009.4
20260503183031 73 352 5.0 18.0 0.00 0.00 0.00 20 1009.4
20260503181529 74 326 10.0 20.0 0.00 0.00 0.00 18 1009.6
20260503174526 74 337 4.0 9.0 0.00 0.00 0.00 20 1010.0
20260503173028 74 14 2.0 10.0 0.00 0.00 0.00 22 1010.3
20260503171522 73 41 3.0 11.0 0.00 0.00 0.00 22 1010.3